Вернуться в каталог

SL-14 DEB

АктивенPO
NORAD 45350·DEBRIS·🇷🇺 Russia

Запущен Aug 15, 1991 с Plesetsk Cosmodrome

Loading…

Ближайшие Пролёты (ближайшие 24 часа)

TLE

СвежийSource: Space-Track

Эпоха: Sep 11, 2026, 22:17 UTC

1 45350U 91056CJ  26254.92881767  .00000392  00000-0  90533-3 0  9992
2 45350  82.5839  73.5532 0033797  86.2043 274.2946 13.22537362317280

Отслеживайте SL-14 DEB в реальном времени с AllMySat

Download on the App Store